CAPE
304 853 2376 2853 2708 2628 2214 2319 2451 2246 2103 1998 1676 1408 1494 1711 1951 1567 1942 1581 1639 1272 1230 1202 1321 1525 1490 2125 2401 2476 2542 2382 2139 2592 2630 2364 2640 2781 2653 1664 3034 2555 2963
315 690 2153 2178 2785 2750 2510 2421 2213 2230 1891 1931 2164 1542 1517 1671 1395 1508 1826 1798 1651 1627 1696 1654 1681 1868 1782 2206 2251 2276 2331 2624 1997 1349 1281 1217 2167 2107 1193 865 2590 2691 2807
544 935 1701 2793 2779 2379 2555 2348 2190 1915 1584 1810 1692 1553 1694 1547 1532 1673 1684 1361 1603 1839 1892 1997 1981 1766 2003 2109 2365 2442 2509 1853 922 912 746 879 1760 2094 1948 1135 1979 1733 2078
480 946 1836 2581 2809 2384 2607 2619 2312 1747 1675 1609 1731 2060 1739 1643 1498 1372 1580 1461 1598 1944 2047 2081 1910 1957 1898 2005 2171 2087 1956 1844 641 167 25 399 1495 2076 1423 1677 2400 2662 2314
759 1323 2078 2975 3113 2529 2486 2653 2250 1739 1608 1678 1666 1659 1754 1620 1608 1489 1698 1469 1695 1827 2244 1821 1805 1821 1913 1798 1929 1855 1666 1567 267 12 41 3 897 2167 1831 1836 2005 1799 1867
715 1448 2602 2749 2430 2612 2740 2567 2061 1767 1671 1379 1488 1369 1724 1538 1682 1492 1683 1251 1681 1528 1632 1675 1728 1849 1823 1777 1543 1494 1797 1418 1278 124 82 0 726 2044 1846 1917 1858 1882 2198
1157 1667 2164 2802 3107 2550 2155 2331 1721 1124 1016 1090 1208 1366 1625 1615 1648 1551 1690 1538 1757 1780 1734 1646 1482 1182 991 1165 1509 1983 2103 1768 601 312 257 230 794 2669 2102 1931 1999 1748 2038
1349 1641 1987 2710 2811 2588 1958 1880 1679 442 1230 1403 1361 1533 1591 1559 1736 1730 1556 1501 1480 1384 1311 1160 1060 1061 1160 1432 2163 2505 1929 354 76 379 367 540 1617 2831 2030 1878 1691 1678 1631
1372 1837 1748 1844 1929 2057 1889 1538 1722 467 1441 1140 1403 1599 1479 1703 1642 1722 1230 1394 1321 1337 1193 985 1018 1308 1850 2232 2044 2436 505 198 209 386 626 1068 2876 2664 1958 2060 1803 1754 1581
871 1246 1280 1472 1459 1579 1498 1464 1239 577 1160 1185 1376 1630 1433 1736 1554 1246 1602 1219 1242 1209 1085 939 921 1652 2210 2016 1486 1736 1178 316 51 393 570 806 2467 2411 2122 1786 1852 1866 1730
489 295 698 1008 1232 885 605 542 1234 355 1024 955 1159 1626 1580 983 812 757 1014 999 921 1023 1089 1156 1426 2314 2500 55 236 316 1349 135 42 114 471 569 2203 2343 1792 1971 2130 2206 1581
428 291 405 371 865 596 315 307 494 131 597 547 668 1024 911 1029 717 567 999 777 752 996 1132 1766 1995 2185 939 57 44 101 747 219 152 207 463 616 2220 2265 1896 2323 2359 1770 1209
416 110 294 557 683 422 212 138 641 314 381 1108 968 219 235 429 447 1179 672 697 702 1185 1127 1387 694 1173 1005 110 66 153 210 146 99 212 551 619 2694 2825 1734 1812 1732 972 1008
600 473 552 549 574 190 127 231 496 38 70 622 672 71 0 142 356 348 253 88 282 349 583 1087 77 320 984 1015 519 162 291 429 487 351 672 2050 2785 2717 1879 1959 2196 2505 1804
781 461 291 420 268 191 462 471 433 31 47 407 690 567 235 434 670 653 13 113 444 415 885 1180 345 658 890 721 326 449 887 528 552 472 816 2360 2570 3035 3061 2541 2371 1925 1552
579 495 240 422 214 362 430 380 483 94 18 372 761 803 1144 1051 682 138 206 205 556 141 226 727 1006 689 1198 537 363 446 659 544 507 367 411 772 2202 2695 3057 3003 2598 2376 2113
463 524 558 547 346 402 338 253 212 0 14 15 91 486 1058 1166 247 167 911 172 637 382 19 116 805 825 872 585 383 265 124 503 497 288 581 996 1648 2912 3300 3335 3117 2822 2635
328 627 622 639 442 447 150 52 49 4 0 0 33 220 680 827 648 285 1051 799 610 722 735 272 105 791 264 649 167 265 159 69 103 285 676 1174 678 1282 2754 3117 3105 2773 2417
364 377 570 682 488 425 178 56 5 53 3 0 0 359 623 589 754 960 1073 665 196 762 653 753 653 1033 529 10 177 117 171 209 274 415 359 736 953 778 649 1163 2075 2224 1975
327 292 374 463 475 485 239 33 9 99 0 57 159 293 363 251 538 710 1080 798 970 719 274 292 609 1287 942 751 136 273 162 101 154 276 488 1076 845 766 823 755 958 1054 1469
409 312 434 492 495 392 207 15 7 2 134 73 278 238 488 770 813 1027 1088 1244 885 208 55 32 779 1037 212 553 824 298 195 18 66 111 235 666 331 201 656 628 307 909 384
490 449 481 216 349 188 101 0 0 0 308 203 212 53 432 1054 712 961 905 1292 1284 699 803 816 1039 1047 376 816 823 341 190 21 230 358 599 560 485 61 0 40 214 614 411
605 746 845 702 396 263 116 301 311 348 486 266 552 200 46 886 1087 1257 1314 1389 675 1213 786 469 379 898 760 849 1086 816 466 157 227 336 404 419 163 228 111 391 4 7 36
783 897 851 781 527 350 238 319 333 144 198 186 231 701 723 1029 1561 907 1387 1556 892 1150 880 448 1088 1384 1050 1125 1274 1252 832 611 494 293 375 284 88 60 160 307 321 76 0
619 718 962 670 531 301 581 221 297 358 183 223 138 402 244 657 1256 1380 1751 1442 1203 1239 1380 1256 1296 939 830 1323 1263 1101 551 67 482 911 456 331 319 114 308 461 383 158 180
594 556 705 819 646 561 476 554 418 503 78 504 173 192 305 733 1212 1282 1524 1753 1228 1674 1483 1437 1349 1367 1226 1103 1015 1634 1280 938 426 652 399 341 110 27 789 755 531 409 177
CIN
-129 -66 0 0 -4 0 0 0 0 0 0 0 0 -13 0 0 0 0 0 0 0 -4 -5 -6 -1 -1 -9 0 -7 -20 -14 -24 -14 -1 -1 -15 -14 -1 -2 -33 0 0 0
-185 -91 0 0 0 0 0 0 -1 0 0 0 0 0 0 0 0 0 0 0 0 0 0 0 0 0 -2 0 -7 -10 -1 -1 -10 -73 -81 -29 -6 -1 -21 -43 0 0 0
-133 -77 -3 0 0 0 0 -1 0 0 0 0 0 0 0 0 0 0 0 -3 -4 -4 -1 0 0 -1 -1 0 -4 0 0 -4 -92 -141 -108 -56 -4 -4 -3 -31 0 0 -1
-139 -74 -2 -1 0 0 0 0 -2 -2 0 0 0 0 0 0 0 0 0 0 -4 -2 -1 0 0 0 0 0 -3 -8 -4 -7 -65 -216 -157 -83 -3 -1 -16 -7 0 0 0
-78 -24 -1 0 0 0 0 0 0 0 0 0 0 0 0 0 0 0 -1 -1 -2 -1 0 0 0 0 0 -6 -13 -14 -6 -4 -142 -65 -94 -21 -12 0 -1 -1 0 0 0
-61 -20 0 0 0 0 0 0 0 0 0 -1 0 0 0 0 0 0 -2 0 0 0 0 0 0 0 -1 -5 -28 -41 -23 -13 -24 -25 -128 0 -30 0 0 -2 0 0 0
-31 -12 0 0 0 0 0 0 -2 -24 -19 -3 0 0 0 0 0 0 0 0 -1 0 0 -1 -9 -25 -46 -48 -22 -6 -4 -27 -41 -100 -44 -41 -44 0 0 0 0 0 -1
-52 -11 0 0 0 0 0 0 -5 -73 -14 0 0 0 0 0 0 0 0 0 0 0 -8 -28 -30 -42 -48 -28 -12 -6 -10 -124 -18 -22 -50 -88 -52 0 0 0 -1 -14 -18
-53 -5 -3 0 0 0 0 -1 -2 -55 -12 -14 0 0 0 0 0 0 0 0 0 -3 -20 -47 -62 -43 -13 -7 -11 -1 -71 -206 -120 -33 -50 -35 -3 -5 -1 0 -3 -5 -6
-60 -26 -13 -6 -1 -1 -1 0 -7 -57 -20 -7 -6 0 -4 0 0 0 0 -9 -11 -25 -47 -64 -67 -36 -20 -8 -8 0 -51 -183 -212 -44 -50 -73 -4 -18 -2 -18 -7 -5 0
-58 -58 -29 -30 -23 -53 -62 -65 -10 -69 -21 -15 -16 -6 -5 -11 -19 -23 -26 -26 -37 -47 -68 -79 -30 -22 -7 -115 -125 -191 -136 -281 -270 -42 -45 -122 -4 -19 -25 -17 -1 0 -6
-34 -30 -23 -63 -88 -146 -153 -121 -57 -107 -32 -54 -32 -27 -31 -13 -29 -27 -47 -46 -50 -73 -82 -49 -15 -9 -38 -283 -135 -258 -92 -241 -259 -39 -61 -93 -2 -7 -23 -10 -1 -10 -22
-22 -18 -43 -82 -91 -131 -161 -193 -57 -64 -66 -29 -13 -118 -95 -139 -38 -20 -68 -86 -98 -110 -111 -117 -56 -162 -144 -284 -94 -254 -197 -136 -31 -52 -71 -151 0 0 -61 -46 -37 -71 -55
-41 -88 -46 -101 -86 -175 -192 -140 -54 -132 -99 -54 -46 -94 0 -41 -43 -38 -91 -188 -141 -98 -24 -34 -113 -232 -145 -117 -70 -16 -46 -92 -122 -45 -79 -64 -1 0 -72 -54 -20 0 -20
-35 -33 -34 -123 -101 -166 -81 -78 -51 -154 -159 -26 -22 -46 -56 -36 -100 -15 -3 -143 -113 -39 -91 -43 -17 -28 -52 -102 -133 -164 -220 -193 -72 -126 -189 -75 -41 0 -9 -36 -22 -13 -23
-41 -26 -45 -133 -106 -91 -85 -61 -40 -34 -172 -27 -26 -10 -31 -28 -39 -37 -44 -93 -16 -21 -13 -28 -24 -42 -35 -70 -26 -41 -48 -86 -74 -25 -32 -96 -55 -4 0 -10 -35 -19 -6
-40 -66 -57 -96 -107 -59 -54 -45 -29 -1 -142 -178 -29 -15 -48 -49 -53 -42 -62 -63 -38 -21 -37 -17 -48 -17 -72 -140 -104 -181 -27 -22 -28 -25 -21 -159 -161 -19 0 -1 -26 -19 0
-46 -29 -41 -22 -39 -52 -22 -42 -76 -16 0 0 -208 -21 -36 -42 -55 -59 -51 -20 -7 -89 -16 -9 -16 -10 -68 -110 -33 -124 -86 -15 -35 -271 -277 -125 -28 -119 -24 -48 -30 -24 -25
-72 -58 -35 -15 -41 -45 -51 -104 -38 -87 -53 0 0 -24 -39 -57 -55 -71 -16 -22 -54 -56 -14 -15 -21 -30 -55 -54 -26 -83 -173 -21 -36 -60 -14 -35 -33 -127 -113 -126 -57 -42 -41
-48 -60 -54 -37 -41 -52 -76 -118 -90 -38 0 -47 -18 -20 -61 -37 -84 -63 -34 -23 -95 -30 -9 -6 -16 -92 -13 -19 -24 -32 -249 -64 -15 -16 -195 -73 -57 -241 -122 -180 -126 -62 -45
-57 -76 -50 -55 -72 -63 -90 -136 -112 -11 -61 -51 -4 -46 -28 -65 -49 -43 -34 -25 -62 -41 -58 -23 -14 -38 -28 -45 -58 -38 -32 -46 -13 -27 -58 -38 -22 -149 -88 -101 -144 -90 -161
-94 -74 -44 -86 -87 -66 -65 0 0 0 -31 -76 -51 -43 -45 -21 -26 -22 -57 -38 -43 -21 -75 -65 -29 -56 -146 -21 -65 -28 -46 -13 -30 -50 -74 -246 -137 -13 0 -311 -179 -55 -100
-146 -101 -70 -84 -121 -104 -144 -62 -59 -47 -24 -35 -15 -45 -154 -69 -16 -10 -28 -60 -18 -30 -77 -37 -16 -20 -41 -68 -22 -24 -13 -19 -66 -56 -97 -237 -146 -25 -44 -264 -53 -11 -52
-204 -130 -110 -79 -96 -98 -81 -45 -29 -36 -23 -24 -23 -19 -31 -28 -26 -27 -27 -22 -21 -68 -27 -21 -24 -56 -22 -28 -46 -55 -15 -25 -10 -27 -45 -13 -20 -27 -47 -244 -14 -52 0
-222 -170 -124 -115 -103 -98 -51 -71 -46 -35 -48 -29 -29 -32 -32 -49 -41 -31 -27 -28 -40 -52 -44 -19 -12 -11 -97 -46 -46 -75 -61 -62 -55 -27 -31 -41 -26 -131 -48 -66 -31 -44 -21
-255 -239 -196 -172 -146 -109 -80 -47 -51 -34 -88 -15 -26 -50 -47 -87 -53 -41 -38 -26 -43 -38 -24 -24 -29 -9 -11 -52 -65 -38 -31 -31 -42 -27 -22 -31 -33 -31 -154 -117 -41 -51 -35
Wind_Speed
6 7 20 21 36 29 13 8 10 9 4 4 5 5 1 1 3 3 6 10 13 12 12 13 11 9 4 6 6 6 8 10 15 12 11 11 13 9 11 13 14 15 15
15 10 14 18 15 18 12 7 9 7 3 2 4 4 1 1 4 6 9 10 12 14 14 12 10 7 4 3 1 4 9 11 21 18 17 17 9 11 6 7 14 9 14
16 12 10 13 16 17 9 6 9 7 3 2 4 4 2 3 8 7 9 8 11 10 9 10 11 14 14 9 5 5 7 13 13 13 18 7 10 6 7 9 11 9 14
13 6 6 7 8 8 5 6 8 6 4 3 4 2 2 5 7 7 8 10 10 8 7 14 15 13 12 7 6 10 10 18 7 5 nan 12 13 8 10 10 11 10 11
12 7 7 5 5 3 5 6 4 5 5 3 2 3 4 7 9 9 7 10 8 7 9 7 9 10 8 9 10 7 6 23 8 nan nan nan 17 10 12 13 13 12 11
13 11 4 5 6 7 5 6 5 5 5 3 2 3 5 7 10 10 8 9 9 8 9 10 11 8 10 12 11 12 18 22 30 26 nan nan 17 16 17 17 17 14 15
15 11 6 7 10 10 7 7 6 6 6 5 2 2 4 6 8 11 8 9 7 8 12 14 14 15 17 19 16 10 12 20 12 24 20 16 17 20 16 15 15 14 14
14 10 10 8 9 11 9 8 6 6 6 5 2 3 4 6 7 9 8 8 7 12 16 19 17 21 31 23 15 17 13 15 nan 18 25 24 22 22 21 18 17 15 14
15 11 14 11 10 11 12 7 6 6 8 5 3 5 6 6 8 7 7 9 9 16 20 21 25 28 18 16 12 11 6 21 24 25 20 20 25 24 24 23 18 14 11
15 14 15 11 10 10 12 6 5 3 8 6 4 3 5 7 7 7 8 12 14 19 20 24 27 23 17 4 11 17 26 11 nan 25 23 15 31 30 29 27 25 17 13
17 21 13 10 6 7 10 7 6 5 9 7 5 3 8 12 8 6 8 15 17 19 24 27 14 13 7 nan 4 36 36 24 nan 23 18 23 36 34 34 31 31 25 15
16 14 25 5 2 3 6 8 11 8 8 14 9 7 10 14 12 4 6 13 16 23 30 23 3 15 9 nan nan 26 17 30 26 33 26 36 42 41 36 33 26 24 21
17 19 18 6 5 10 7 10 15 15 9 12 11 10 10 12 14 5 4 6 10 23 17 18 13 25 29 14 nan 30 29 27 nan 25 35 42 42 40 35 32 27 26 23
13 12 12 12 7 7 2 12 6 nan nan 15 16 nan nan 13 13 7 4 nan 10 8 10 11 nan 13 16 22 27 19 25 29 30 24 31 39 41 39 34 34 34 32 25
10 9 8 6 5 4 4 1 3 nan nan 16 15 9 9 13 11 6 nan 7 7 4 9 12 14 14 9 21 23 22 25 28 30 30 26 39 37 40 34 29 31 33 30
7 9 12 8 3 2 1 2 2 nan nan 13 17 15 10 12 11 9 4 4 5 5 9 11 12 15 15 18 23 27 29 32 28 30 25 16 25 30 30 30 28 30 30
8 9 13 11 6 5 2 4 2 nan nan nan nan 15 15 15 13 10 11 7 2 6 nan 6 9 8 9 8 8 14 14 27 29 33 15 21 22 26 30 26 25 27 28
10 9 9 6 7 5 4 nan nan nan nan nan nan 14 15 15 14 14 11 8 7 6 2 3 4 8 5 9 4 9 5 nan 14 15 16 17 20 19 21 21 22 19 27
13 13 10 6 6 4 5 nan nan nan nan nan nan 17 14 13 13 12 12 10 6 5 5 2 2 3 4 nan 5 7 7 7 6 7 13 15 10 13 16 13 15 18 24
12 12 10 6 5 3 1 nan nan nan nan nan 11 11 7 9 11 12 11 7 10 7 6 2 2 5 3 2 5 4 7 4 10 5 8 4 10 13 9 10 6 10 23
13 10 7 6 4 4 2 nan nan nan 8 nan 8 8 8 11 10 10 9 7 8 5 nan nan 5 9 4 6 2 6 6 nan nan 8 2 4 8 15 4 4 5 7 15
18 14 10 6 8 4 1 nan nan nan 6 3 3 nan 10 12 8 10 7 10 14 7 13 9 11 9 6 2 1 1 3 nan 3 3 11 16 13 nan nan nan 6 3 6
18 18 15 9 9 4 3 3 6 11 11 6 5 5 nan 7 7 12 12 9 13 13 12 8 11 8 6 4 6 7 7 2 2 3 8 8 12 9 7 14 nan nan nan
20 15 17 13 9 4 4 3 5 6 7 7 6 6 7 11 14 11 11 10 11 11 10 10 11 11 11 4 5 9 6 10 6 2 4 8 nan nan 11 10 9 nan nan
26 20 14 15 13 6 4 4 3 7 8 8 8 8 8 12 13 13 11 10 11 11 10 11 14 11 11 10 8 8 9 nan 8 5 3 2 6 10 12 12 9 9 9
22 21 16 17 12 9 6 4 4 6 nan 10 10 13 12 12 15 15 12 10 12 12 11 12 13 9 9 8 11 9 12 14 8 11 7 4 7 nan 8 9 10 11 10
Wind_Direction
316 326 288 287 303 246 203 261 267 264 275 295 271 261 263 21 60 56 36 38 34 31 31 39 42 41 15 348 339 313 278 272 269 267 270 269 264 257 280 270 296 278 282
302 324 304 283 288 203 217 230 260 259 262 272 273 280 59 78 75 58 51 44 39 38 34 36 44 37 29 28 269 240 249 250 256 228 222 200 260 281 282 291 311 291 279
306 300 308 327 257 214 201 275 266 254 222 207 261 279 74 74 74 78 71 61 66 45 33 20 20 15 17 15 357 312 10 298 281 291 203 144 131 305 321 324 306 315 301
300 305 312 304 316 198 223 262 262 265 228 201 230 234 100 99 101 95 80 85 77 51 28 20 18 18 23 358 317 348 5 311 262 55 nan 100 91 8 336 339 333 327 311
308 276 292 254 226 210 278 278 259 275 250 227 232 165 120 109 105 108 92 95 83 66 36 28 27 31 31 17 11 17 14 302 80 nan nan nan 91 36 16 352 345 337 321
311 283 290 282 223 225 254 291 272 240 241 227 210 142 110 113 109 107 97 86 77 59 43 33 27 28 52 58 64 81 86 15 44 66 nan nan 63 32 15 358 359 358 336
276 268 253 279 245 263 269 265 241 253 220 231 181 134 114 118 120 109 106 81 82 68 51 50 51 51 52 64 61 79 144 120 110 73 75 62 54 36 19 353 334 337 332
279 260 249 261 235 251 259 274 286 266 235 237 162 149 143 124 118 113 108 81 63 69 65 69 70 61 48 48 75 56 71 109 nan 75 66 70 51 33 28 5 350 329 344
279 258 236 240 252 264 234 247 278 289 213 227 186 189 154 134 123 123 101 83 67 72 72 78 78 72 74 45 55 104 128 62 76 59 73 64 40 29 26 9 342 328 350
258 249 246 208 225 201 199 249 245 264 222 231 207 188 135 117 128 130 115 86 69 71 79 77 87 103 66 55 128 62 81 90 nan 42 38 55 48 30 23 14 9 11 354
268 244 227 233 192 225 197 214 228 251 215 221 211 190 136 137 142 136 96 82 73 70 71 69 74 77 212 nan 333 82 78 60 nan 68 55 71 50 34 26 22 19 27 24
290 304 134 145 301 260 235 213 226 229 219 204 185 183 150 141 156 146 63 65 77 74 71 77 99 185 107 nan nan 84 95 83 62 58 44 58 44 33 27 31 27 27 36
316 328 12 323 226 292 309 218 219 235 221 198 199 190 154 158 153 190 131 97 94 88 101 77 335 15 38 38 nan 46 43 56 nan 50 49 49 42 38 23 37 41 41 49
318 312 308 316 273 248 274 197 236 nan nan 195 195 nan nan 188 162 175 95 nan 85 104 75 69 nan 5 20 35 39 49 53 48 53 67 55 37 40 46 33 35 47 53 50
317 332 321 302 26 89 335 13 64 nan nan 167 174 168 182 168 162 187 nan 65 79 88 68 73 99 84 62 42 43 49 50 49 46 58 40 42 45 45 45 40 52 55 53
313 314 316 335 350 250 283 58 310 nan nan 197 180 176 160 166 176 168 218 94 60 105 69 45 46 63 57 44 30 38 42 44 37 45 39 44 62 54 59 47 44 60 65
337 343 332 329 298 303 269 257 234 nan nan nan nan 185 168 162 189 177 200 173 130 72 nan 113 60 82 87 20 49 36 8 34 33 37 47 21 36 47 48 45 35 48 69
334 9 357 329 289 263 257 nan nan nan nan nan nan 191 173 170 176 193 201 188 206 159 104 97 107 93 64 72 53 40 53 nan 9 30 23 26 26 47 51 45 37 39 52
358 1 24 9 355 296 259 nan nan nan nan nan nan 175 171 168 172 211 211 184 195 185 232 198 24 101 232 nan 51 63 60 88 85 36 53 35 18 45 53 26 5 66 60
351 346 18 10 351 331 231 nan nan nan nan nan 152 179 176 193 185 211 206 175 180 202 197 186 171 231 91 48 109 130 91 93 68 44 21 48 11 25 10 39 84 59 78
348 329 338 292 332 303 160 nan nan nan 121 nan 170 178 197 200 187 227 216 189 201 189 nan nan 200 241 186 218 134 88 128 nan nan 333 290 57 139 141 265 27 28 45 48
342 350 336 317 318 326 334 nan nan nan 129 116 130 nan 188 194 206 230 219 211 228 213 211 227 235 233 345 303 22 199 85 nan 165 219 290 284 75 nan nan nan 303 359 81
346 349 344 330 323 328 327 172 156 150 152 165 186 182 nan 196 217 224 228 227 231 230 222 226 268 238 236 259 0 319 288 285 113 254 336 328 12 62 6 38 nan nan nan
355 348 340 334 332 310 284 223 208 191 196 194 210 226 229 230 225 231 220 235 233 258 248 229 256 255 287 294 222 227 247 316 308 251 298 329 nan nan 26 26 26 nan nan
346 344 331 337 323 310 274 241 231 217 206 196 221 213 205 208 221 223 225 249 240 235 232 235 235 254 259 269 273 267 275 nan 282 275 256 257 322 357 9 19 9 65 27
350 343 340 336 339 306 294 230 254 238 nan 208 215 214 201 204 217 220 224 242 262 253 240 244 245 269 269 272 271 257 276 284 273 280 284 292 325 nan 346 354 1 33 45